Flag for U.S.A. Weather past 2 weeks in Atlantic City, New Jersey, U.S.A.

Now
80 °F

Sunny.


Feels Like: 82 °F
Forecast: 68 / 79 °F
Wind: 8 mph from Southeast

Location: Atlantic City International Airport

Current Time: Aug 21, 2014 at 3:02:06 PM

Latest Report: Aug 21, 2014 at 1:54 PM


Visibility: 10 mi

Pressure: 30.04 "Hg

Humidity: 56%

Dew point: 63 °F

Location of Atlantic CityLocation

Historic Weather in Atlantic City — Graph

°F

Atlantic City temperature yesterday

Maximum temperature yesterday: 80 °F (at 1:54 PM)
Minimum temperature yesterday: 63 °F (at 3:54 AM)
Average temperature yesterday: 71 °F

Past Weeks' High & Low Weather Summary

 TemperatureHumidityPressure
High85 °F (Aug 10, 1:54 PM)100% (Aug 11, 4:54 AM)30.15 "Hg (Aug 11, 4:54 AM)
Low55 °F (Aug 16, 3:54 AM)37% (Aug 15, 2:54 PM)29.70 "Hg (Aug 13, 3:54 PM)
Average71 °F71%29.96 "Hg
* Reported Aug 6 1:54 PM — Aug 21 1:54 PM, Atlantic City, Weather by CustomWeather, © 2014

Note: Actual official high and low records may vary slightly from our data, if they occured in-between our weather recording intervals... More about our weather records

Advertising

Atlantic City weather history for previous 24 hours

 ConditionsComfort  
Time TempWeatherWind HumidityBarometerVisibility
1:54 PM
Aug 21
80 °FSunny.8 mph56%30.04 "Hg10 mi
12:54 PM79 °FSunny.8 mph58%30.05 "Hg10 mi
11:54 AM79 °FSunny.9 mph60%30.05 "Hg10 mi
10:54 AM79 °FSunny.6 mph56%30.06 "Hg10 mi
9:54 AM77 °FPassing clouds.3 mph66%30.06 "Hg10 mi
8:54 AM75 °FSunny.No wind74%30.06 "Hg10 mi
7:54 AM70 °FSunny.No wind87%30.06 "Hg10 mi
6:54 AM64 °FFog.No wind94%30.04 "Hg4 mi
5:54 AM64 °FClear.No wind94%30.02 "Hg10 mi
4:54 AM65 °FPassing clouds.No wind94%30.02 "Hg10 mi
3:54 AM66 °FPassing clouds.No wind93%30.01 "Hg10 mi
2:54 AM67 °FOvercast.3 mph90%30.02 "Hg10 mi
1:54 AM69 °FMostly cloudy.No wind81%30.03 "Hg10 mi
12:54 AM67 °FMostly cloudy.No wind87%30.04 "Hg10 mi
11:54 PM
Aug 20
65 °FPassing clouds.No wind87%30.03 "Hg10 mi
10:54 PM69 °FClear.3 mph81%30.02 "Hg10 mi
9:54 PM67 °FClear.5 mph87%29.99 "Hg10 mi
8:54 PM69 °FPassing clouds.6 mph81%30.01 "Hg10 mi
7:54 PM70 °FSunny.6 mph79%30.01 "Hg10 mi
6:54 PM74 °FOvercast.8 mph69%30.01 "Hg10 mi
5:54 PM75 °FSunny.8 mph66%30.01 "Hg10 mi
4:54 PM77 °FSunny.10 mph60%29.98 "Hg10 mi
3:54 PM78 °FSunny.7 mph58%29.98 "Hg10 mi
Weather by CustomWeather, © 2014

See weather overviewHow to use our weather pages